Starlink 32682

operational
NORAD ID: 62196 Int'l Des: 2024-229 Owner: SPXS Country: US Constellation: starlink
LEOCIRCULAR

关于 Starlink 32682

正在加载描述...

实时位置

正在加载3D地球...

即将过境

高度历史

Altitude vs Time

uPlot chart will show altitude changes over time

两行轨道根数

1 62196U 24229E 25350.31735805 .00022151 00000-0 81149-3 0 9997
2 62196 43.0031 348.8850 0001120 263.5578 96.5147 15.27603807 58186
Epoch: Dec 16, 2025 • Age: 20 hours

当前状态

高度 482.3 km
速度 7.63 km/s
星下点 3.34°N, 158.96°W
发射日期 Dec 4, 2024
运行时间 1 years
类型 internet

技术详情

分类 Payload
质量 730.00 kg
干质量 700.00 kg
总质量 730.00 kg
长度 0.30 m
直径 4.10 m
跨度 29.00 m
形状 Box + pan
制造商 SPXS
平台类型 Starlink V2M
阶段状态 In Orbit
所有者/国家 SPXS/US

大型星座

Loading constellations...